www.pogodaiklimat.ru
ПОГОДА в Зелианополе
Время
и дата
05:55 01.12
06:15 01.12
06:35 01.12
06:55 01.12
07:15 01.12
07:35 01.12
07:55 01.12
08:15 01.12
08:35 01.12
08:55 01.12
09:15 01.12
09:35 01.12
09:55 01.12
10:15 01.12
10:35 01.12
10:55 01.12
11:15 01.12
11:35 01.12
11:55 01.12
12:15 01.12
12:35 01.12
12:55 01.12
13:15 01.12
13:35 01.12
13:55 01.12
14:15 01.12
14:35 01.12
14:55 01.12
15:15 01.12
15:35 01.12
15:55 01.12
16:15 01.12
16:35 01.12
16:55 01.12
17:15 01.12
17:35 01.12
17:55 01.12
18:15 01.12
18:35 01.12
18:55 01.12
19:15 01.12
19:35 01.12
19:55 01.12
20:15 01.12
20:35 01.12
20:55 01.12
21:15 01.12
21:35 01.12
Ветер
(напр.,м/с)
Видим. Явления Облачность Т
(С)
Тd
(С)
f
(%)
Тe
(С)
Тes
(С)
Комфортность P
(гПа)
Po
(гПа)
Тmin
(С)
Tmax
(С)
R
(мм)
R24
(мм)
S
(см)
ЮЗ 5
{7}
16 км 10/10 1230 м -2.0 -9.0 59 -8 -8 994.5
З 5
{8}
16 км 10/10 1230 м -2.0 -9.0 59 -8 -8 994.8
З 3
{8}
16 км 10/10 1230 м -2.0 -9.0 59 -7 -7 995.5
ЮЗ 5
{8}
16 км 10/10 1170 м -2.0 -9.0 59 -8 -8 995.8
З 5
{8}
16 км 10/10 1170 м -2.0 -9.0 59 -8 -8 996.1
ЮЗ 4 16 км 10/10 1110 м -2.0 -9.0 59 -7 -7 996.4
ЮЗ 4 16 км 10/10 1110 м -2.0 -9.0 59 -7 -7 996.8
ЮЗ 4
{7}
16 км 10/10 1110 м -2.0 -9.0 59 -7 -7 997.1
ЮЗ 4
{8}
16 км 10/10 1050 м -2.0 -9.0 59 -7 -7 997.4
ЮЗ 4 16 км 10/10 1050 м -2.0 -9.0 59 -7 -7 997.8
ЮЗ 3 16 км 10/10 990 м -2.0 -9.0 59 -7 -7 998.1
ЮЗ 4
{7}
16 км 10/10 990 м -2.0 -8.0 63 -7 -7 998.7
З 3 16 км 10/10 930 м -2.0 -8.0 63 -7 -7 999.1
ЮЗ 4 16 км 10/10 930 м -2.0 -9.0 59 -7 -7 999.4
З 4 16 км 10/10 930 м -2.0 -9.0 59 -7 -7 999.7
З 2 16 км 10/10 930 м -2.0 -8.0 63 -5 -5 999.7
ЮЗ 3 16 км 10/10 930 м -2.0 -8.0 63 -7 -7 999.7
З 3 16 км 10/10 930 м -2.0 -8.0 63 -7 -7 999.7
З 3 16 км 10/10 930 м -2.0 -8.0 63 -7 -7 999.7
З 3 16 км 10/10 930 м -2.0 -8.0 63 -7 -7 999.7
З 2 16 км 10/10 930 м -1.0 -8.0 59 -4 -4 999.4
З 3 16 км 10/10 930 м -1.0 -8.0 59 -5 -5 999.4
З 4 16 км 8/8 930 м 0.0 -8.0 55 -5 -4 999.4
ЮЗ 2 16 км 5/5 930 м 0.0 -8.0 55 -3 -1 999.1
З 2 16 км ясно 0.0 -8.0 55 -3 +1 998.7
З 2 16 км ясно 0.0 -8.0 55 -3 0 998.7
СЗ 2 16 км ясно 0.0 -8.0 55 -3 0 998.7
З 2 16 км ясно 0.0 -8.0 55 -3 0 998.7
Ю 2 16 км ясно 0.0 -8.0 55 -3 -1 998.7
штиль 0 16 км ясно 0.0 -8.0 55 -1 +2 998.7
З 2 16 км ясно 0.0 -8.0 55 -3 -1 999.4
штиль 0 16 км ясно 0.0 -8.0 55 -1 0 999.4
штиль 0 16 км ясно 0.0 -8.0 55 -1 0 999.4
штиль 0 16 км ясно -1.0 -8.0 59 -2 -1 999.1
штиль 0 16 км ясно -1.0 -7.0 64 -2 -2 998.7
штиль 0 16 км ясно -2.0 -7.0 69 -3 -3 998.7
штиль 0 16 км ясно -2.0 -6.0 74 -3 -3 998.7
штиль 0 16 км ясно -3.0 -6.0 80 -4 -4 999.1
штиль 0 16 км ясно -4.0 -6.0 86 -5 -5 998.7
штиль 0 16 км ясно -4.0 -6.0 86 -5 -5 998.7
штиль 0 16 км ясно -4.0 -6.0 86 -5 -5 998.7
штиль 0 16 км ясно -5.0 -6.0 93 -6 -6 998.7
штиль 0 16 км ясно -6.0 -6.0 100 -7 -7 998.7
штиль 0 16 км ясно -6.0 -6.0 100 -7 -7 998.7
штиль 0 16 км ясно -6.0 -6.0 100 -7 -7 999.1
штиль 0 16 км ясно -6.0 -6.0 100 -7 -7 999.4
штиль 0 16 км ясно -6.0 -7.0 93 -7 -7 999.1
штиль 0 16 км ясно -6.0 -6.0 100 -7 -7 998.7
Местоположение метеостанции Zelienople Municipal Airport: широта 40.8009 долгота -80.1624 высота над уровнем моря 273 м.
В архиве по умолчанию представлена погода в Зелианополе за последние 1-2 суток. Обновление информации о фактической погоде в базе происходит ежечасно! Архивные данные за месяц целиком и за предыдущие месяцы Вы можете получить, выбрав интересующий диапазон дат из раскрывающегося списка и нажав кнопку "Ввод!".
Внимание! Архив погоды МЕТАР в базе сайта по станциям, не включенным в климатический монитор, хранится не более 60 дней. Нет смысла пытаться выбрать более раннюю дату.
*Определитесь, кто Вы:
Внимание! Время в таблицах - местное (без учета летнего времени). Для получения всемирного времени необходимо вычесть поправку, которая равна -5 ч.
Смотрите также архив погоды в соседних городах и на ближайших метеорологических станциях:
Партнеры нашего сайта:      
Пояснения к столбцам:
  • Ветер - указаны скорость ветра в м/с - средняя за 10 мин, порывы в срок и между сроками (в фигурных скобках) и направление, откуда дует ветер: С - северный,
  • СВ - северо-восточный, В - восточный, ЮВ - юго-восточный, Ю - южный, ЮЗ - юго-западный, З - западный, СЗ - северо-западный.
  • Видимость - горизонтальная дальность видимости в метрах или километрах. При видимости от 1 до 10 км при отсутствии осадков обычно наблюдается дымка, при ухудшении видимости до 1 км и менее - туман. В сухую погоду видимость может ухудшаться дымом, пылью или мглою.
  • Явления - указаны атмосферные явления, наблюдавшиеся в срок или в последний час перед сроком; фигурными скобками обозначены явления, наблюдавшиеся между сроками (за 1-3 часа до срока); квадратными скобками обозначены град или гололедные отложения с указанием их диаметра в мм.
  • Облачность - указаны через наклонную черту общая и нижняя облачность в баллах и высота нижней границы облаков в метрах; квадратными скобками обозначены формы облаков: Ci - перистые, Cs - перисто-слоистые, Cc - перисто-кучевые, Ac - высококучевые, As - высокослоистые, Sc - слоисто-кучевые, Ns - слоисто-дождевые, Cu - кучевые, Cb - кучево-дождевые. Подробнее классификацию облаков см. в Атласе облаков (PDF).
  • T - Температура воздуха - температура, измеренная на высоте 2 м над землей.
  • Td - Температура точки росы - температура, при понижении до которой содержащийся в воздухе водяной пар достигнет насыщения.
  • f - Относительная влажность воздуха - влажноcть воздуха, измеренная на высоте 2 м над землей.
  • Te - Эффективная температура - температура, которую ощущает одетый по сезону человек в тени. Характеристика душности погоды. При расчете учитывается влияние влажности воздуха и скорости ветра на теплоощущения человека.
  • Tes - Эффективная температура на солнце - температура, которую ощущает человек, с поправкой на солнечный нагрев. Характеристика знойности погоды. Зависит от высоты солнца над горизонтом, облачности и скорости ветра. Ночью, в пасмурную погоду, а также при ветре 12 м/с и более поправка равна нулю.
  • P - Атмосферное давление - приведенное к уровню моря атмосферное давление.
  • Po - Атмосферное давление - измеренное на уровне метеостанции атмосферное давление.
  • Tmin - Минимальная температура - минимум температуры воздуха на высоте 2 м над землей.
  • Tmax - Максимальная температура - максимум температуры воздуха на высоте 2 м над землей.
  • R - Количество осадков - Количество выпавших осадков за период времени, мм. При наведении курсора мыши на число - период времени, за который выпало указанное количество осадков.
  • R24 - Количество осадков - Количество выпавших осадков за 24 часа, мм.
  • S - Снежный покров - Высота снежного покрова, см. При наведении курсора мыши на число - состояние снежного покрова и степень покрытия местности в баллах.